• In Uzbekistan
  • List of Countries
  • For 7 days
  • Water Temperature
  • Satellite Maps
  • Weather Map
  • Weather Widgets
  • user-avatar
    Login

    Hourly Weather Gersthofen

    Today, 22 October, Monday

    Time Temperature Precipitation Wind Pressure Humidity
    00:00 +5°C° 0 mm 2 mps 727 mmHg 84%
    01:00 +4°C° 0 mm 2 mps 727 mmHg 85%
    02:00 +4°C° 0 mm 2 mps 727 mmHg 86%
    03:00 +4°C° 0 mm 2 mps 727 mmHg 87%
    04:00 +3°C° 0 mm 2 mps 727 mmHg 89%
    05:00 +3°C° 0 mm 2 mps 727 mmHg 90%
    06:00 +4°C° 0 mm 1 mps 727 mmHg 90%
    07:00 +3°C° 0 mm 1 mps 727 mmHg 91%
    08:00 +5°C° 0 mm 2 mps 727 mmHg 83%
    09:00 +7°C° 0 mm 2 mps 727 mmHg 76%
    10:00 +9°C° 0 mm 2 mps 727 mmHg 68%
    11:00 +10°C° 0 mm 2 mps 727 mmHg 64%
    12:00 +12°C° 0 mm 2 mps 727 mmHg 60%
    13:00 +13°C° 0 mm 2 mps 727 mmHg 57%
    14:00 +13°C° 0 mm 2 mps 728 mmHg 59%
    15:00 +13°C° 0 mm 2 mps 728 mmHg 61%
    16:00 +13°C° 0 mm 1 mps 728 mmHg 64%
    17:00 +11°C° 0 mm 1 mps 728 mmHg 69%
    18:00 +9°C° 0 mm 1 mps 729 mmHg 74%
    19:00 +8°C° 0 mm 1 mps 729 mmHg 79%
    20:00 +8°C° 0 mm 1 mps 729 mmHg 80%
    21:00 +8°C° 0 mm 1 mps 730 mmHg 82%
    22:00 +8°C° 0 mm 1 mps 730 mmHg 84%
    23:00 +8°C° 0 mm 1 mps 730 mmHg 87%

    Tomorrow, 23 October, Tuesday

    Time Temperature Precipitation Wind Pressure Humidity
    00:00 +8°C° 0 mm 1 mps 730 mmHg 90%
    01:00 +7°C° 0 mm 1 mps 730 mmHg 93%
    02:00 +7°C° 0 mm 1 mps 730 mmHg 93%
    03:00 +7°C° 0 mm 1 mps 730 mmHg 93%
    04:00 +7°C° 0 mm 1 mps 730 mmHg 93%
    05:00 +7°C° 0 mm 1 mps 730 mmHg 93%
    06:00 +6°C° 0 mm 2 mps 730 mmHg 93%
    07:00 +6°C° 0 mm 2 mps 730 mmHg 93%
    08:00 +7°C° 0 mm 2 mps 729 mmHg 89%
    09:00 +8°C° 0 mm 3 mps 729 mmHg 84%
    10:00 +9°C° 0 mm 3 mps 729 mmHg 80%
    11:00 +10°C° 0 mm 4 mps 729 mmHg 75%
    12:00 +11°C° 0 mm 4 mps 728 mmHg 70%
    13:00 +12°C° 0 mm 5 mps 728 mmHg 65%
    14:00 +12°C° 0 mm 5 mps 728 mmHg 65%
    15:00 +12°C° 0 mm 5 mps 727 mmHg 65%
    16:00 +11°C° 0 mm 4 mps 727 mmHg 66%
    17:00 +10°C° 0.1 mm 5 mps 727 mmHg 67%
    18:00 +9°C° 0.1 mm 5 mps 727 mmHg 69%
    19:00 +9°C° 0.1 mm 5 mps 728 mmHg 70%
    20:00 +9°C° 0.1 mm 5 mps 728 mmHg 70%
    21:00 +9°C° 0.1 mm 5 mps 727 mmHg 70%
    22:00 +8°C° 0.1 mm 6 mps 727 mmHg 70%
    23:00 +8°C° 0 mm 6 mps 727 mmHg 70%

    Day after tomorrow, 24 October, Wednesday

    Time Temperature Precipitation Wind Pressure Humidity
    00:00 +8°C° 0 mm 6 mps 727 mmHg 71%
    01:00 +8°C° 0 mm 6 mps 727 mmHg 71%
    02:00 +8°C° 0 mm 7 mps 726 mmHg 72%
    03:00 +9°C° 0 mm 7 mps 726 mmHg 72%
    04:00 +9°C° 0 mm 7 mps 726 mmHg 73%
    05:00 +9°C° 0.2 mm 7 mps 726 mmHg 75%
    06:00 +9°C° 0.2 mm 7 mps 725 mmHg 78%
    07:00 +9°C° 0.2 mm 7 mps 725 mmHg 81%
    08:00 +9°C° 0.4 mm 7 mps 725 mmHg 83%
    09:00 +9°C° 0.4 mm 7 mps 725 mmHg 85%
    10:00 +9°C° 0.4 mm 7 mps 725 mmHg 88%
    11:00 +9°C° 0.3 mm 7 mps 726 mmHg 88%
    12:00 +9°C° 0.3 mm 7 mps 726 mmHg 89%
    13:00 +9°C° 0.3 mm 6 mps 726 mmHg 89%
    14:00 +9°C° 0.2 mm 6 mps 726 mmHg 90%
    15:00 +9°C° 0.2 mm 6 mps 726 mmHg 90%
    16:00 +9°C° 0.2 mm 5 mps 726 mmHg 91%
    17:00 +10°C° 0.1 mm 5 mps 726 mmHg 91%
    18:00 +10°C° 0.1 mm 5 mps 726 mmHg 92%
    19:00 +10°C° 0.1 mm 5 mps 726 mmHg 92%
    20:00 +11°C° 0.1 mm 4 mps 727 mmHg 93%
    21:00 +11°C° 0.1 mm 4 mps 727 mmHg 94%
    22:00 +11°C° 0.1 mm 3 mps 727 mmHg 94%
    23:00 +10°C° 0 mm 3 mps 727 mmHg 95%

    25 October, Thursday

    Time Temperature Precipitation Wind Pressure Humidity
    00:00 +10°C° 0 mm 3 mps 726 mmHg 96%
    01:00 +9°C° 0 mm 3 mps 726 mmHg 96%
    02:00 +9°C° 0 mm 3 mps 726 mmHg 96%
    03:00 +8°C° 0 mm 3 mps 725 mmHg 96%
    04:00 +8°C° 0 mm 3 mps 725 mmHg 96%
    05:00 +8°C° 0 mm 3 mps 725 mmHg 96%
    06:00 +8°C° 0 mm 3 mps 724 mmHg 96%
    07:00 +7°C° 0 mm 2 mps 724 mmHg 96%
    08:00 +9°C° 0 mm 3 mps 724 mmHg 92%
    09:00 +10°C° 0 mm 3 mps 724 mmHg 89%
    10:00 +11°C° 0 mm 3 mps 724 mmHg 86%
    11:00 +12°C° 0 mm 3 mps 724 mmHg 82%
    12:00 +13°C° 0 mm 3 mps 723 mmHg 79%
    13:00 +13°C° 0 mm 3 mps 723 mmHg 76%
    14:00 +13°C° 0 mm 3 mps 723 mmHg 77%
    15:00 +13°C° 0 mm 3 mps 722 mmHg 78%
    16:00 +13°C° 0 mm 2 mps 722 mmHg 79%
    17:00 +10°C° 0 mm 2 mps 722 mmHg 84%
    18:00 +10°C° 0 mm 1 mps 722 mmHg 88%
    19:00 +8°C° 0 mm 1 mps 722 mmHg 93%
    20:00 +8°C° 0 mm 1 mps 722 mmHg 93%
    21:00 +7°C° 0 mm 1 mps 722 mmHg 94%
    22:00 +6°C° 0 mm 0 mps 721 mmHg 95%
    23:00 +6°C° 0 mm 0 mps 721 mmHg 95%

    26 October, Friday

    Time Temperature Precipitation Wind Pressure Humidity
    00:00 +6°C° 0 mm 1 mps 720 mmHg 95%
    01:00 +6°C° 0 mm 1 mps 720 mmHg 95%
    02:00 +6°C° 0 mm 1 mps 719 mmHg 96%
    03:00 +6°C° 0 mm 1 mps 719 mmHg 96%
    04:00 +6°C° 0 mm 1 mps 718 mmHg 96%
    05:00 +5°C° 0 mm 1 mps 718 mmHg 96%
    06:00 +5°C° 0 mm 1 mps 718 mmHg 95%
    07:00 +5°C° 0 mm 1 mps 718 mmHg 95%
    08:00 +7°C° 0 mm 1 mps 717 mmHg 89%
    09:00 +8°C° 0 mm 2 mps 717 mmHg 83%
    10:00 +10°C° 0 mm 2 mps 716 mmHg 77%
    11:00 +13°C° 0 mm 2 mps 716 mmHg 70%
    12:00 +14°C° 0 mm 2 mps 716 mmHg 64%
    13:00 +16°C° 0 mm 2 mps 715 mmHg 58%
    14:00 +15°C° 0 mm 2 mps 715 mmHg 61%
    15:00 +15°C° 0 mm 1 mps 714 mmHg 64%
    16:00 +14°C° 0 mm 1 mps 714 mmHg 68%
    17:00 +13°C° 0 mm 1 mps 714 mmHg 71%
    18:00 +11°C° 0 mm 1 mps 713 mmHg 75%
    19:00 +10°C° 0 mm 1 mps 713 mmHg 78%
    20:00 +10°C° 0 mm 1 mps 713 mmHg 78%
    21:00 +8°C° 0 mm 2 mps 713 mmHg 77%
    22:00 +8°C° 0 mm 2 mps 714 mmHg 76%
    23:00 +8°C° 0 mm 2 mps 713 mmHg 78%

    27 October, Saturday

    Time Temperature Precipitation Wind Pressure Humidity
    00:00 +9°C° 0 mm 1 mps 712 mmHg 81%
    01:00 +8°C° 0 mm 1 mps 712 mmHg 83%
    02:00 +8°C° 0.3 mm 1 mps 711 mmHg 85%
    03:00 +9°C° 0.3 mm 1 mps 711 mmHg 87%
    04:00 +9°C° 0.3 mm 1 mps 710 mmHg 89%
    05:00 +9°C° 0.9 mm 1 mps 710 mmHg 91%
    06:00 +9°C° 0.9 mm 1 mps 709 mmHg 93%
    07:00 +9°C° 0.9 mm 1 mps 709 mmHg 95%
    08:00 +7°C° 1.3 mm 2 mps 709 mmHg 94%
    09:00 +7°C° 1.3 mm 3 mps 709 mmHg 93%
    10:00 +6°C° 1.3 mm 4 mps 709 mmHg 92%
    11:00 +6°C° 0.7 mm 4 mps 709 mmHg 90%
    12:00 +6°C° 0.7 mm 4 mps 710 mmHg 88%
    13:00 +6°C° 0.7 mm 4 mps 710 mmHg 87%
    14:00 +6°C° 0.9 mm 4 mps 710 mmHg 88%
    15:00 +7°C° 0.9 mm 3 mps 710 mmHg 89%
    16:00 +5°C° 0.9 mm 3 mps 710 mmHg 90%
    17:00 +5°C° 0.8 mm 3 mps 710 mmHg 91%
    18:00 +5°C° 0.8 mm 2 mps 710 mmHg 92%
    19:00 +5°C° 0.8 mm 2 mps 710 mmHg 93%
    20:00 +4°C° 0.4 mm 2 mps 710 mmHg 93%
    21:00 +4°C° 0.4 mm 2 mps 710 mmHg 93%
    22:00 +4°C° 0.4 mm 2 mps 710 mmHg 93%
    23:00 +4°C° 0.2 mm 2 mps 710 mmHg 93%

    28 October, Sunday

    Time Temperature Precipitation Wind Pressure Humidity
    00:00 +3°C° 0.2 mm 2 mps 710 mmHg 93%
    01:00 +4°C° 0.2 mm 1 mps 710 mmHg 93%
    02:00 +4°C° 0.1 mm 1 mps 710 mmHg 93%
    03:00 +4°C° 0.1 mm 1 mps 710 mmHg 92%
    04:00 +4°C° 0.1 mm 1 mps 711 mmHg 92%
    05:00 +3°C° 0.1 mm 2 mps 711 mmHg 92%
    06:00 +3°C° 0.1 mm 2 mps 712 mmHg 92%
    07:00 +3°C° 0.1 mm 2 mps 712 mmHg 92%
    08:00 +3°C° 0.1 mm 2 mps 713 mmHg 90%
    09:00 +4°C° 0.1 mm 2 mps 713 mmHg 87%
    10:00 +4°C° 0.1 mm 2 mps 714 mmHg 84%
    11:00 +5°C° 0.1 mm 2 mps 714 mmHg 81%
    12:00 +6°C° 0.1 mm 2 mps 714 mmHg 77%
    13:00 +6°C° 0.1 mm 2 mps 715 mmHg 74%
    14:00 +7°C° 0 mm 1 mps 715 mmHg 74%
    15:00 +7°C° 0 mm 1 mps 715 mmHg 74%
    16:00 +6°C° 0 mm 0 mps 715 mmHg 74%
    17:00 +5°C° 0 mm 0 mps 716 mmHg 77%
    18:00 +4°C° 0 mm 0 mps 716 mmHg 81%
    19:00 +4°C° 0 mm 1 mps 716 mmHg 84%
    20:00 +3°C° 0 mm 1 mps 716 mmHg 86%
    21:00 +3°C° 0 mm 1 mps 716 mmHg 88%
    22:00 +2°C° 0 mm 1 mps 716 mmHg 90%
    23:00 +2°C° 0 mm 1 mps 716 mmHg 91%
    Show more